When you browse on this site, cookies collect data to enhance your experience and personalize the content and advertising you see.
Visit our Privacy Policy to learn more. By continuing to use the site, you agree to this use of cookies and data.
  • En España
  • Lista de países
  • Para 7 días
  • Temperatura del agua
  • Mapa Satelital
  • El tiempo en el mapa
  • Informadores
  • user-avatar
    Iniciar sesión

    Tiempo cada hora Benguela

    Hoy, 13 Diciembre, Jueves

    Tiempo Temperatura Precipitaciones Viento Presión Humedad
    00:00 +26°C° 0 mm 2 mps 760 mmHg 86%
    01:00 +26°C° 0 mm 2 mps 760 mmHg 86%
    02:00 +26°C° 0 mm 2 mps 760 mmHg 87%
    03:00 +26°C° 0 mm 1 mps 760 mmHg 88%
    04:00 +26°C° 0 mm 1 mps 760 mmHg 89%
    05:00 +26°C° 0 mm 1 mps 760 mmHg 86%
    06:00 +27°C° 0 mm 1 mps 760 mmHg 84%
    07:00 +27°C° 0 mm 1 mps 761 mmHg 81%
    08:00 +29°C° 0 mm 1 mps 761 mmHg 72%
    09:00 +32°C° 0 mm 1 mps 761 mmHg 62%
    10:00 +35°C° 0 mm 2 mps 760 mmHg 53%
    11:00 +35°C° 0 mm 2 mps 760 mmHg 52%
    12:00 +36°C° 0 mm 3 mps 759 mmHg 51%
    13:00 +37°C° 0 mm 4 mps 758 mmHg 50%
    14:00 +36°C° 0 mm 4 mps 758 mmHg 52%
    15:00 +35°C° 0 mm 4 mps 757 mmHg 54%
    16:00 +35°C° 0 mm 4 mps 757 mmHg 56%
    17:00 +33°C° 0 mm 4 mps 757 mmHg 62%
    18:00 +30°C° 0 mm 3 mps 758 mmHg 68%
    19:00 +29°C° 0 mm 3 mps 758 mmHg 74%
    20:00 +28°C° 0 mm 3 mps 759 mmHg 77%
    21:00 +28°C° 0 mm 2 mps 760 mmHg 79%
    22:00 +27°C° 0 mm 2 mps 761 mmHg 81%
    23:00 +27°C° 0 mm 2 mps 761 mmHg 83%

    Mañana, 14 Diciembre, Viernes

    Tiempo Temperatura Precipitaciones Viento Presión Humedad
    00:00 +27°C° 0 mm 2 mps 760 mmHg 84%
    01:00 +26°C° 0 mm 2 mps 760 mmHg 85%
    02:00 +26°C° 0 mm 2 mps 760 mmHg 86%
    03:00 +26°C° 0 mm 1 mps 760 mmHg 87%
    04:00 +25°C° 0 mm 1 mps 760 mmHg 88%
    05:00 +26°C° 0 mm 1 mps 760 mmHg 86%
    06:00 +26°C° 0 mm 1 mps 760 mmHg 84%
    07:00 +27°C° 0 mm 1 mps 761 mmHg 82%
    08:00 +29°C° 0 mm 1 mps 761 mmHg 73%
    09:00 +30°C° 0 mm 1 mps 761 mmHg 65%
    10:00 +32°C° 0 mm 2 mps 761 mmHg 56%
    11:00 +32°C° 0 mm 2 mps 760 mmHg 55%
    12:00 +34°C° 0 mm 3 mps 760 mmHg 53%
    13:00 +34°C° 0 mm 3 mps 759 mmHg 52%
    14:00 +33°C° 0 mm 3 mps 759 mmHg 56%
    15:00 +31°C° 0 mm 3 mps 758 mmHg 60%
    16:00 +30°C° 0 mm 3 mps 758 mmHg 65%
    17:00 +29°C° 0 mm 3 mps 759 mmHg 69%
    18:00 +28°C° 0 mm 2 mps 759 mmHg 74%
    19:00 +27°C° 0 mm 2 mps 760 mmHg 78%
    20:00 +27°C° 0 mm 2 mps 760 mmHg 80%
    21:00 +26°C° 0 mm 1 mps 761 mmHg 82%
    22:00 +26°C° 0 mm 1 mps 762 mmHg 83%
    23:00 +26°C° 0 mm 1 mps 761 mmHg 84%

    Pasado mañana, 15 Diciembre, Sábado

    Tiempo Temperatura Precipitaciones Viento Presión Humedad
    00:00 +26°C° 0 mm 1 mps 761 mmHg 85%
    01:00 +23°C° 0 mm 0 mps 761 mmHg 86%
    02:00 +23°C° 0 mm 0 mps 760 mmHg 87%
    03:00 +25°C° 0 mm 1 mps 760 mmHg 88%
    04:00 +25°C° 0 mm 1 mps 760 mmHg 88%
    05:00 +25°C° 0 mm 1 mps 760 mmHg 85%
    06:00 +24°C° 0 mm 0 mps 761 mmHg 82%
    07:00 +25°C° 0 mm 0 mps 761 mmHg 79%
    08:00 +28°C° 0 mm 1 mps 761 mmHg 70%
    09:00 +30°C° 0 mm 2 mps 761 mmHg 61%
    10:00 +32°C° 0 mm 2 mps 761 mmHg 52%
    11:00 +33°C° 0 mm 3 mps 761 mmHg 51%
    12:00 +34°C° 0 mm 3 mps 760 mmHg 50%
    13:00 +35°C° 0 mm 4 mps 760 mmHg 49%
    14:00 +34°C° 0 mm 4 mps 759 mmHg 51%
    15:00 +33°C° 0 mm 3 mps 759 mmHg 53%
    16:00 +33°C° 0 mm 3 mps 758 mmHg 55%
    17:00 +30°C° 0 mm 3 mps 759 mmHg 62%
    18:00 +29°C° 0 mm 2 mps 760 mmHg 68%
    19:00 +28°C° 0 mm 2 mps 760 mmHg 75%
    20:00 +27°C° 0 mm 1 mps 761 mmHg 77%
    21:00 +27°C° 0 mm 1 mps 761 mmHg 80%
    22:00 +26°C° 0 mm 1 mps 761 mmHg 82%
    23:00 +26°C° 0 mm 1 mps 761 mmHg 82%

    16 Diciembre, Domingo

    Tiempo Temperatura Precipitaciones Viento Presión Humedad
    00:00 +26°C° 0 mm 1 mps 760 mmHg 81%
    01:00 +26°C° 0 mm 1 mps 760 mmHg 81%
    02:00 +26°C° 0 mm 1 mps 760 mmHg 80%
    03:00 +26°C° 0 mm 1 mps 760 mmHg 80%
    04:00 +26°C° 0 mm 1 mps 760 mmHg 79%
    05:00 +27°C° 0 mm 1 mps 760 mmHg 77%
    06:00 +27°C° 0 mm 1 mps 760 mmHg 74%
    07:00 +26°C° 0 mm 0 mps 761 mmHg 71%
    08:00 +30°C° 0 mm 1 mps 761 mmHg 65%
    09:00 +32°C° 0 mm 1 mps 760 mmHg 59%
    10:00 +35°C° 0 mm 2 mps 760 mmHg 53%
    11:00 +36°C° 0 mm 3 mps 759 mmHg 52%
    12:00 +37°C° 0 mm 4 mps 759 mmHg 50%
    13:00 +37°C° 0 mm 4 mps 758 mmHg 49%
    14:00 +36°C° 0.1 mm 4 mps 758 mmHg 53%
    15:00 +35°C° 0.1 mm 4 mps 758 mmHg 57%
    16:00 +34°C° 0.1 mm 4 mps 758 mmHg 61%
    17:00 +32°C° 0 mm 4 mps 758 mmHg 68%
    18:00 +30°C° 0 mm 3 mps 759 mmHg 75%
    19:00 +28°C° 0 mm 2 mps 760 mmHg 81%
    20:00 +28°C° 0 mm 2 mps 760 mmHg 83%
    21:00 +28°C° 0 mm 2 mps 761 mmHg 84%
    22:00 +28°C° 0 mm 2 mps 761 mmHg 85%
    23:00 +28°C° 0 mm 2 mps 761 mmHg 85%

    17 Diciembre, Lunes

    Tiempo Temperatura Precipitaciones Viento Presión Humedad
    00:00 +27°C° 0 mm 1 mps 760 mmHg 86%
    01:00 +27°C° 0 mm 1 mps 760 mmHg 86%
    02:00 +27°C° 0 mm 1 mps 759 mmHg 87%
    03:00 +27°C° 0 mm 1 mps 759 mmHg 87%
    04:00 +27°C° 0 mm 1 mps 759 mmHg 88%
    05:00 +27°C° 0 mm 1 mps 760 mmHg 86%
    06:00 +28°C° 0 mm 1 mps 760 mmHg 84%
    07:00 +28°C° 0 mm 1 mps 761 mmHg 82%
    08:00 +30°C° 0 mm 1 mps 761 mmHg 73%
    09:00 +32°C° 0 mm 2 mps 760 mmHg 65%
    10:00 +35°C° 0 mm 2 mps 760 mmHg 57%
    11:00 +35°C° 0 mm 3 mps 759 mmHg 55%
    12:00 +36°C° 0 mm 4 mps 759 mmHg 53%
    13:00 +37°C° 0 mm 4 mps 758 mmHg 51%
    14:00 +36°C° 0 mm 4 mps 758 mmHg 54%
    15:00 +35°C° 0 mm 4 mps 757 mmHg 58%
    16:00 +34°C° 0 mm 4 mps 757 mmHg 61%
    17:00 +32°C° 0 mm 4 mps 758 mmHg 68%
    18:00 +30°C° 0 mm 3 mps 758 mmHg 74%
    19:00 +29°C° 0 mm 2 mps 759 mmHg 80%
    20:00 +28°C° 0 mm 2 mps 759 mmHg 82%
    21:00 +28°C° 0 mm 2 mps 760 mmHg 83%
    22:00 +28°C° 0 mm 2 mps 760 mmHg 85%
    23:00 +27°C° 0 mm 1 mps 760 mmHg 86%

    18 Diciembre, Martes

    Tiempo Temperatura Precipitaciones Viento Presión Humedad
    00:00 +27°C° 0 mm 1 mps 760 mmHg 87%
    01:00 +27°C° 0 mm 1 mps 759 mmHg 88%
    02:00 +27°C° 0 mm 1 mps 759 mmHg 88%
    03:00 +27°C° 0 mm 1 mps 759 mmHg 89%
    04:00 +26°C° 0 mm 1 mps 759 mmHg 90%
    05:00 +27°C° 0 mm 1 mps 760 mmHg 88%
    06:00 +27°C° 0 mm 1 mps 760 mmHg 86%
    07:00 +28°C° 0 mm 1 mps 760 mmHg 84%
    08:00 +30°C° 0 mm 1 mps 760 mmHg 74%
    09:00 +31°C° 0 mm 2 mps 760 mmHg 65%
    10:00 +34°C° 0 mm 2 mps 760 mmHg 55%
    11:00 +35°C° 0 mm 3 mps 759 mmHg 52%
    12:00 +36°C° 0 mm 4 mps 758 mmHg 50%
    13:00 +36°C° 0 mm 4 mps 758 mmHg 48%
    14:00 +36°C° 0 mm 4 mps 757 mmHg 50%
    15:00 +35°C° 0 mm 4 mps 757 mmHg 53%
    16:00 +34°C° 0 mm 4 mps 756 mmHg 55%
    17:00 +31°C° 0 mm 3 mps 757 mmHg 62%
    18:00 +30°C° 0 mm 3 mps 757 mmHg 68%
    19:00 +28°C° 0 mm 2 mps 758 mmHg 75%
    20:00 +28°C° 0 mm 2 mps 758 mmHg 77%
    21:00 +27°C° 0 mm 2 mps 759 mmHg 80%
    22:00 +27°C° 0 mm 2 mps 759 mmHg 82%
    23:00 +27°C° 0 mm 2 mps 759 mmHg 83%
    Mostrar más